Chippewa, MI

6:12 AM EDT on March 26, 2017 (GMT -0400)
Chippewa County International

Weather History for KCIU - December, 2010

Change the Weather History Date:

Friday, December 3, 2010

  Actual Average Record
Temperature  
Mean Temperature 22 °F -  
Max Temperature 24 °F 34 °F 60 °F (1982)
Min Temperature 21 °F 18 °F -4 °F (2002)
Degree Days  
Heating Degree Days 42    
Moisture  
Dew Point 19 °F    
Average Humidity 82    
Maximum Humidity 93    
Minimum Humidity 74    
Precipitation  
Precipitation 0.00 in - - ()
Sea Level Pressure  
Sea Level Pressure 30.10 in    
Wind  
Wind Speed 7 mph (WNW)    
Max Wind Speed 10 mph    
Max Gust Speed -    
Visibility 8 miles    
Events      
Averages and records for this station are not official NWS values.
T = Trace of Precipitation, MM = Missing Value Source: NWS Daily Summary

Daily Weather History Graph

Daily Weather History Graph

Search for Another Location

Airport or City:

Trip Planner

Search our weather history database for the weather conditions in past years. The results will help you decide how hot, cold, wet, or windy it might be!

Date:

Astronomy

Dec. 03, 2010 Rise Set
Actual Time 8:02 AM EST 4:52 PM EST
Civil Twilight 7:28 AM EST 5:26 PM EST
Nautical Twilight 6:50 AM EST 6:04 PM EST
Astronomical Twilight 6:14 AM EST 6:40 PM EST
Moon 5:47 AM EST (12/3) 3:08 PM EST (12/3)
Length of Visible Light 9h 58m
Length of Day
8h 50m
Waning Crescent, 5% of the Moon is Illuminated
Dec 3
Waning Crescent
Dec 5
New
Dec 13
First Quarter
Dec 21
Full
Dec 27
Last Quarter

Hourly Weather History & Observations

Time (EST) Temp. Windchill Dew Point Humidity Pressure Visibility Wind Dir Wind Speed Gust Speed Precip Events Conditions
12:15 AM 21.2 °F 10.1 °F 17.6 °F 86% 30.04 in 10.0 mi West 10.4 mph - N/A   Partly Cloudy
12:35 AM 21.2 °F 10.9 °F 17.6 °F 86% 30.04 in 10.0 mi West 9.2 mph - N/A   Partly Cloudy
12:55 AM 21.2 °F 10.1 °F 17.6 °F 86% 30.04 in 10.0 mi West 10.4 mph - N/A   Clear
1:15 AM 21.2 °F 10.9 °F 17.6 °F 86% 30.04 in 10.0 mi West 9.2 mph - N/A   Clear
1:35 AM 21.2 °F 10.9 °F 17.6 °F 86% 30.05 in 10.0 mi West 9.2 mph - N/A   Clear
1:55 AM 21.2 °F 12.6 °F 17.6 °F 86% 30.05 in 10.0 mi West 6.9 mph - N/A   Scattered Clouds
2:15 AM 21.2 °F 11.7 °F 17.6 °F 86% 30.05 in 10.0 mi West 8.1 mph - N/A   Scattered Clouds
2:35 AM 21.2 °F 10.9 °F 17.6 °F 86% 30.05 in 10.0 mi West 9.2 mph - N/A   Mostly Cloudy
2:55 AM 21.2 °F 10.1 °F 17.6 °F 86% 30.06 in 5.0 mi West 10.4 mph - N/A   Overcast
3:15 AM 21.2 °F 11.7 °F 17.6 °F 86% 30.06 in 1.5 mi West 8.1 mph - N/A   Overcast
3:35 AM 21.2 °F 10.9 °F 19.4 °F 93% 30.07 in 3.0 mi West 9.2 mph - N/A   Overcast
3:55 AM 21.2 °F 12.6 °F 19.4 °F 93% 30.07 in 9.0 mi WSW 6.9 mph - N/A   Overcast
4:15 AM 23.0 °F 14.7 °F 19.4 °F 86% 30.08 in 10.0 mi West 6.9 mph - N/A   Overcast
4:35 AM 23.0 °F 14.7 °F 17.6 °F 80% 30.08 in 10.0 mi WSW 6.9 mph - N/A   Overcast
4:55 AM 23.0 °F 15.8 °F 19.4 °F 86% 30.08 in 9.0 mi WSW 5.8 mph - N/A   Overcast
5:15 AM 23.0 °F 17.0 °F 19.4 °F 86% 30.08 in 3.0 mi West 4.6 mph - N/A   Overcast
5:35 AM 23.0 °F 14.7 °F 19.4 °F 86% 30.09 in 3.0 mi West 6.9 mph - N/A   Overcast
5:55 AM 23.0 °F 17.0 °F 19.4 °F 86% 30.09 in 3.0 mi West 4.6 mph - N/A   Overcast
6:15 AM 23.0 °F - 19.4 °F 86% 30.09 in 5.0 mi Calm Calm - N/A   Overcast
6:35 AM 23.0 °F 18.4 °F 19.4 °F 86% 30.09 in 3.0 mi West 3.5 mph - N/A   Overcast
6:55 AM 23.0 °F - 19.4 °F 86% 30.09 in 5.0 mi Calm Calm - N/A   Overcast
7:15 AM 23.0 °F 18.4 °F 19.4 °F 86% 30.10 in 4.0 mi WSW 3.5 mph - N/A   Overcast
7:35 AM 24.8 °F 20.5 °F 19.4 °F 80% 30.10 in 4.0 mi WSW 3.5 mph - N/A   Overcast
7:55 AM 23.0 °F 18.4 °F 19.4 °F 86% 30.10 in 3.0 mi West 3.5 mph - N/A   Overcast
8:15 AM 23.0 °F 18.4 °F 19.4 °F 86% 30.10 in 3.0 mi West 3.5 mph - N/A   Overcast
8:35 AM 24.8 °F 20.5 °F 21.2 °F 86% 30.10 in 8.0 mi West 3.5 mph - N/A   Overcast
8:55 AM 24.8 °F - 21.2 °F 86% 30.10 in 8.0 mi Calm Calm - N/A   Overcast
9:15 AM 24.8 °F 19.1 °F 21.2 °F 86% 30.11 in 10.0 mi West 4.6 mph - N/A   Overcast
9:35 AM 24.8 °F - 21.2 °F 86% 30.11 in 10.0 mi Calm Calm - N/A   Overcast
9:55 AM 24.8 °F - 19.4 °F 80% 30.11 in 10.0 mi Calm Calm - N/A   Overcast
10:15 AM 24.8 °F - 21.2 °F 86% 30.11 in 7.0 mi Calm Calm - N/A   Overcast
11:55 AM 24.8 °F 15.3 °F 19.4 °F 80% 30.12 in 10.0 mi North 9.2 mph - N/A   Overcast
12:15 PM 24.8 °F 14.6 °F 19.4 °F 80% 30.11 in 10.0 mi NW 10.4 mph - N/A   Overcast
12:35 PM 24.8 °F 16.1 °F 17.6 °F 74% 30.11 in 10.0 mi NNE 8.1 mph - N/A   Overcast
12:55 PM 24.8 °F 16.9 °F 17.6 °F 74% 30.11 in 10.0 mi NE 6.9 mph - N/A   Overcast
1:15 PM 24.8 °F 14.6 °F 17.6 °F 74% 30.11 in 10.0 mi North 10.4 mph - N/A   Overcast
1:35 PM 24.8 °F 17.9 °F 17.6 °F 74% 30.10 in 10.0 mi North 5.8 mph - N/A   Overcast
1:55 PM 24.8 °F 16.9 °F 17.6 °F 74% 30.11 in 10.0 mi North 6.9 mph - N/A   Overcast
2:15 PM 24.8 °F 15.3 °F 17.6 °F 74% 30.11 in 10.0 mi North 9.2 mph - N/A   Overcast
2:35 PM 24.8 °F 15.3 °F 17.6 °F 74% 30.11 in 10.0 mi North 9.2 mph - N/A   Overcast
2:55 PM 24.8 °F 16.1 °F 17.6 °F 74% 30.12 in 9.0 mi NNW 8.1 mph - N/A   Overcast
3:15 PM 24.8 °F 16.1 °F 19.4 °F 80% 30.12 in 9.0 mi NNW 8.1 mph - N/A   Overcast
3:35 PM 24.8 °F 16.9 °F 19.4 °F 80% 30.12 in 10.0 mi NNW 6.9 mph - N/A   Overcast
3:55 PM 24.8 °F 17.9 °F 19.4 °F 80% 30.13 in 10.0 mi NNW 5.8 mph - N/A   Overcast
4:15 PM 24.8 °F 17.9 °F 19.4 °F 80% 30.13 in 10.0 mi North 5.8 mph - N/A   Overcast
4:35 PM 24.8 °F 16.9 °F 19.4 °F 80% 30.13 in 10.0 mi NW 6.9 mph - N/A   Overcast
4:55 PM 24.8 °F 16.1 °F 19.4 °F 80% 30.13 in 5.0 mi NW 8.1 mph - N/A   Overcast
5:15 PM 24.8 °F 17.9 °F 21.2 °F 86% 30.13 in 4.0 mi NW 5.8 mph - N/A   Overcast
5:35 PM 24.8 °F 17.9 °F 19.4 °F 80% 30.13 in 10.0 mi North 5.8 mph - N/A   Overcast
5:55 PM 24.8 °F 16.1 °F 17.6 °F 74% 30.13 in 10.0 mi NNE 8.1 mph - N/A   Overcast
6:15 PM 23.0 °F 14.7 °F 17.6 °F 80% 30.14 in 10.0 mi North 6.9 mph - N/A   Overcast
6:35 PM 23.0 °F 13.1 °F 17.6 °F 80% 30.14 in 10.0 mi NNE 9.2 mph - N/A   Overcast
6:55 PM 23.0 °F - 15.8 °F 74% 30.14 in 10.0 mi North - - N/A   Overcast
7:15 PM 23.0 °F 15.8 °F 15.8 °F 74% 30.15 in 10.0 mi North 5.8 mph - N/A   Overcast
7:35 PM 23.0 °F 14.7 °F 17.6 °F 80% 30.15 in 10.0 mi NNE 6.9 mph - N/A   Overcast
7:55 PM 21.2 °F 12.6 °F 15.8 °F 80% 30.15 in 10.0 mi North 6.9 mph - N/A   Overcast
8:15 PM 21.2 °F 10.9 °F 17.6 °F 86% 30.15 in 10.0 mi NE 9.2 mph - N/A   Overcast
8:35 PM 21.2 °F 10.9 °F 15.8 °F 80% 30.15 in 10.0 mi NNE 9.2 mph - N/A   Overcast
8:55 PM 21.2 °F 10.9 °F 15.8 °F 80% 30.15 in 9.0 mi North 9.2 mph - N/A   Overcast
9:15 PM 21.2 °F 10.1 °F 15.8 °F 80% 30.15 in 10.0 mi NNE 10.4 mph - N/A   Overcast
9:35 PM 21.2 °F 9.5 °F 15.8 °F 80% 30.14 in 10.0 mi NNE 11.5 mph - N/A   Overcast
9:55 PM 19.4 °F 9.5 °F 15.8 °F 86% 30.15 in 10.0 mi NNE 8.1 mph - N/A   Overcast
10:15 PM 19.4 °F 9.5 °F 14.0 °F 80% 30.16 in 10.0 mi NNE 8.1 mph - N/A   Overcast
10:35 PM 19.4 °F 10.4 °F 14.0 °F 80% 30.16 in 10.0 mi NE 6.9 mph - N/A   Overcast
10:55 PM 19.4 °F 10.4 °F 14.0 °F 80% 30.16 in 10.0 mi NE 6.9 mph - N/A   Overcast
11:15 PM 19.4 °F 11.5 °F 14.0 °F 80% 30.16 in 10.0 mi NE 5.8 mph - N/A   Overcast
11:35 PM 19.4 °F 8.6 °F 12.2 °F 74% 30.15 in 10.0 mi NE 9.2 mph - N/A   Overcast
11:55 PM 19.4 °F 11.5 °F 14.0 °F 80% 30.16 in 10.0 mi ENE 5.8 mph - N/A   Overcast